RH
12 13 9 6 8 8 8 8 8 7 8 7 6 8 16 16 14 13 14 17 18 18 19 21 25 28 28 30 32 35 36 38 40 41 42 45 45 52 67 57 55 52 54 37
14 13 9 9 9 10 9 9 9 7 7 8 7 12 14 17 18 20 20 22 26 25 24 24 26 28 30 30 34 35 39 41 42 42 41 42 42 52 59 54 46 47 57 40
11 10 12 10 10 12 10 11 8 9 8 12 32 35 24 20 17 15 17 24 27 30 29 33 32 31 34 34 37 40 41 43 44 44 44 43 40 51 52 52 46 40 34 32
14 13 12 12 16 16 13 9 11 17 24 40 44 52 45 28 25 20 19 30 30 33 33 35 30 32 37 38 40 40 40 42 39 45 45 42 41 51 51 45 42 38 38 44
14 13 11 11 9 10 14 14 26 36 44 50 54 53 43 31 32 23 26 32 32 33 38 35 29 27 27 28 31 33 33 32 32 35 37 37 41 49 48 49 55 54 66 55
18 19 17 16 19 22 18 24 33 49 57 64 55 53 37 30 26 26 28 35 34 37 40 37 30 22 26 24 25 24 25 26 26 27 32 35 39 53 88 100 100 94 74 42
25 19 22 21 33 33 46 58 61 68 73 67 42 47 42 36 33 31 29 35 39 43 41 28 24 30 21 20 20 20 21 24 25 21 22 23 32 55 62 78 69 59 50 43
33 34 19 20 17 33 38 43 49 74 77 45 43 50 41 36 34 29 30 38 41 40 29 32 33 26 29 32 29 25 27 30 26 22 18 18 22 29 35 40 45 49 83 41
28 30 23 19 18 18 38 58 46 48 55 63 48 44 40 43 41 35 36 41 36 33 38 37 35 27 34 37 33 29 34 34 33 30 26 27 37 42 45 47 42 42 45 49
29 41 38 36 42 42 36 35 57 63 76 72 57 54 49 44 42 38 40 44 42 45 42 40 36 34 40 41 38 36 34 29 30 30 31 28 26 32 48 49 47 47 48 48
28 40 46 58 54 47 48 53 53 53 57 77 72 51 42 43 45 40 45 53 52 50 48 44 42 42 41 37 34 33 29 29 32 32 31 27 28 33 38 47 54 56 55 51
36 48 52 56 62 61 58 52 52 62 70 62 54 50 45 41 46 50 57 56 54 56 52 46 42 40 37 35 37 34 28 30 32 36 36 37 34 45 49 41 56 58 56 58
61 65 68 75 73 68 71 71 71 60 59 60 71 59 50 44 56 63 61 62 57 52 49 49 45 41 39 37 38 40 43 41 42 44 43 38 34 40 44 45 44 44 62 62
73 69 69 69 62 72 75 68 70 75 71 66 63 61 59 56 63 59 58 58 57 55 52 44 40 43 46 46 48 48 49 51 54 54 51 53 57 52 49 41 46 58 69 69
89 94 88 77 79 84 80 73 72 75 72 71 66 64 59 60 59 60 65 65 60 55 50 48 52 51 48 47 50 54 57 62 69 65 56 62 70 77 65 54 61 86 75 68
99 100 100 99 97 100 96 85 72 73 71 76 70 65 59 59 61 62 65 63 62 58 54 54 58 55 51 54 54 58 61 66 67 68 78 83 98 98 99 96 90 73 60 65
100 100 100 98 99 100 99 86 80 78 75 81 87 74 64 62 70 68 74 70 67 65 57 53 57 59 60 60 60 62 65 72 79 78 76 84 93 98 98 99 92 99 76 59
99 99 100 97 100 97 94 96 86 81 81 86 97 94 82 72 72 85 93 84 80 77 69 83 69 64 63 64 68 70 69 66 57 51 52 52 52 53 57 55 62 71 64 95
99 100 99 98 98 98 96 92 92 96 94 93 88 92 89 94 97 90 66 55 82 84 82 82 82 71 64 59 52 48 50 52 50 45 40 32 29 30 33 37 70 84 98 98
100 100 100 99 98 94 65 70 82 97 98 98 98 90 97 96 89 59 54 85 94 89 84 76 62 54 50 46 36 27 18 10 7 6 6 5 5 5 5 8 13 28 60 85
98 99 99 99 98 84 67 68 76 98 64 54 56 54 49 44 50 67 85 83 80 78 68 58 50 44 38 22 10 7 6 5 5 7 8 10 12 10 6 8 24 18 27 46
84 98 98 99 98 92 70 65 70 57 53 47 40 42 50 74 81 80 90 84 71 62 54 50 43 32 17 9 6 5 6 11 12 15 18 20 19 18 18 15 25 62 61 66
99 88 90 90 76 73 67 64 57 51 49 47 49 56 67 78 83 81 73 63 56 53 49 39 26 13 7 5 7 10 13 16 19 21 24 29 27 27 22 36 34 60 81 94
90 94 94 84 76 67 62 64 65 63 59 63 65 64 64 63 62 59 58 57 55 44 28 13 7 6 4 10 17 19 19 24 24 23 25 34 48 44 42 45 63 48 77 100
85 82 75 72 73 74 67 63 70 71 72 72 69 67 64 63 65 65 54 41 26 13 7 6 10 13 13 16 15 18 24 28 23 22 23 30 44 45 48 52 55 74 63 55
86 81 83 76 72 74 71 69 70 73 73 72 72 72 73 63 52 45 32 21 14 7 10 18 18 16 14 13 15 25 32 30 30 30 32 36 33 36 44 54 61 73 82 64
Wind_Speed
33 36 39 33 32 32 31 31 33 32 27 33 33 35 32 32 32 32 36 38 41 43 46 44 36 31 36 27 24 23 19 21 20 15 15 20 19 18 18 19 19 20 22 25
37 44 37 34 34 32 31 34 37 37 31 32 34 37 33 32 33 37 40 37 33 38 43 38 29 18 24 24 21 20 18 19 18 16 13 13 14 17 19 19 20 19 20 23
37 38 16 31 36 33 35 36 35 37 28 26 30 42 37 35 36 40 37 37 38 34 24 13 9 8 9 12 14 14 12 14 13 15 15 16 17 17 17 19 18 18 18 21
27 34 31 28 24 22 35 32 28 26 25 22 19 12 28 37 36 32 43 36 29 11 8 8 10 8 8 10 12 12 12 13 15 16 15 15 14 17 18 17 20 21 22 23
32 28 28 35 35 30 37 28 22 19 25 28 28 20 25 19 34 37 28 18 14 8 8 8 11 8 5 6 9 10 10 8 8 9 12 16 17 18 20 22 23 24 26 28
41 34 30 30 24 24 31 28 25 23 22 17 26 23 43 33 24 29 20 16 15 12 14 15 14 6 4 5 6 6 3 2 4 8 13 16 19 21 24 26 28 28 31 32
43 48 41 35 28 25 22 15 5 4 5 8 16 25 39 28 35 25 19 15 16 16 17 16 12 7 5 5 5 6 5 6 11 15 18 20 21 23 26 28 29 33 33 33
34 25 44 45 48 34 34 35 15 7 5 6 14 14 24 27 13 12 19 14 18 21 22 15 9 10 7 7 8 8 9 12 14 18 19 21 24 27 29 30 31 36 36 34
22 25 24 29 25 50 39 37 40 28 17 6 15 29 35 25 24 21 26 17 23 25 19 15 13 15 10 10 12 12 17 20 22 19 19 22 24 27 27 29 29 27 31 31
23 12 17 17 19 25 41 29 19 23 5 10 9 18 24 12 16 24 31 28 26 22 19 18 18 16 10 11 13 18 24 27 26 22 20 23 28 31 29 30 31 31 30 30
46 26 17 17 27 33 32 41 27 27 29 5 4 17 31 31 27 29 32 29 25 22 20 20 21 18 15 16 21 26 28 28 26 23 22 25 28 32 34 34 35 34 34 35
44 23 35 36 24 25 37 40 47 26 11 28 26 39 20 11 25 32 32 29 26 23 20 19 17 13 20 24 26 29 32 33 35 32 30 32 31 31 32 35 35 36 37 35
39 29 23 23 29 39 41 36 40 46 32 39 15 19 24 24 31 30 30 28 26 22 16 14 17 21 26 28 29 29 30 33 33 31 30 30 35 37 38 37 38 39 37 35
28 36 36 27 19 9 31 53 40 42 36 41 43 24 23 31 38 35 27 20 16 16 18 21 25 28 30 32 31 33 32 31 31 32 32 33 29 31 35 38 39 36 35 33
40 41 44 52 42 35 40 31 39 47 58 35 42 36 31 38 32 24 20 17 17 20 23 28 29 30 31 33 32 29 31 31 32 37 40 36 35 35 33 36 39 37 37 41
42 33 39 48 42 39 42 43 39 48 50 48 40 40 43 41 31 27 28 25 24 26 28 31 29 32 34 34 35 35 35 35 38 39 38 39 37 35 33 31 29 33 34 34
47 44 35 36 38 37 31 59 47 45 47 47 41 39 47 44 35 34 28 26 26 29 31 37 38 37 35 36 37 38 39 38 38 40 43 45 46 42 37 29 36 32 37 33
45 44 34 22 28 11 37 39 46 52 51 49 43 37 39 40 33 35 30 28 32 35 38 36 38 37 37 38 39 38 38 39 40 42 42 43 44 42 41 43 40 41 39 37
52 46 24 9 17 8 25 25 32 51 58 56 44 38 33 27 26 24 28 34 40 37 36 34 31 30 30 32 33 34 35 37 38 39 43 45 45 45 42 40 38 38 37 39
42 42 43 17 7 11 27 28 24 23 36 45 42 39 36 29 30 29 36 35 36 35 31 26 26 28 27 27 32 36 40 44 46 48 49 49 47 47 49 47 45 41 38 42
29 30 38 28 13 13 22 17 24 24 30 27 30 30 31 34 33 26 31 36 37 33 29 27 29 33 35 39 44 46 47 47 45 41 41 40 39 40 43 44 44 44 42 39
37 25 23 24 15 15 19 27 37 32 27 25 26 25 31 31 32 31 32 29 25 24 26 30 32 36 40 42 42 42 42 39 39 39 38 37 37 38 37 42 44 41 40 40
30 40 36 31 26 18 17 17 21 23 23 26 25 23 30 32 29 27 25 24 23 25 29 33 38 41 41 40 40 40 38 38 40 43 43 42 39 37 37 39 43 45 44 42
31 24 29 27 29 27 25 30 33 30 26 24 22 22 22 23 25 25 25 24 25 30 35 37 39 40 39 37 36 38 38 39 41 42 44 44 41 40 39 39 39 46 51 48
27 26 31 30 35 32 27 31 31 28 28 24 23 22 22 23 22 22 23 27 31 31 33 34 33 34 36 37 38 39 40 42 42 44 44 43 39 39 39 41 43 40 41 52
34 37 37 36 35 32 29 30 29 29 28 26 23 22 22 21 23 26 27 29 30 29 30 29 30 35 37 37 38 38 39 40 42 43 44 43 43 40 39 41 43 42 40 39
Wind_Direction
239 240 240 247 255 259 268 271 272 270 269 276 272 271 258 264 271 276 279 279 283 285 282 278 278 281 254 263 265 261 270 267 269 266 252 247 255 263 268 278 282 281 264 258
239 243 249 252 253 256 256 261 265 273 272 274 276 273 271 272 279 287 291 292 296 286 281 285 276 287 256 265 265 257 254 261 257 254 252 249 266 263 269 275 285 281 271 265
240 246 252 249 250 250 254 254 263 271 284 270 277 276 276 283 288 296 300 307 297 292 285 286 288 299 255 256 259 248 260 253 259 255 253 268 271 263 272 272 273 279 273 267
246 244 241 243 245 247 256 258 266 270 273 271 285 290 287 294 293 295 311 303 293 261 257 272 304 267 253 256 249 248 244 252 258 253 254 254 259 267 272 274 271 272 272 266
238 247 244 243 249 250 257 265 273 276 268 277 271 283 292 276 284 298 310 282 277 223 222 252 296 264 222 216 238 251 258 250 249 252 253 255 256 265 271 274 280 279 280 282
245 247 249 260 254 247 255 252 260 265 273 254 256 250 277 278 283 301 290 275 248 226 224 246 268 196 276 264 234 234 228 271 291 284 274 271 268 267 266 270 270 281 280 287
239 242 242 243 240 238 231 216 234 259 208 247 250 238 253 267 286 287 232 252 237 203 217 212 202 260 206 166 189 210 225 283 310 303 292 284 282 275 274 274 276 277 281 286
226 245 237 232 236 228 223 221 209 202 211 266 241 242 263 283 257 280 233 229 191 193 186 193 222 206 210 258 256 248 272 305 309 315 302 297 291 287 285 280 276 278 275 284
227 241 238 244 251 236 226 219 235 243 254 293 252 262 268 266 260 270 230 197 186 189 192 200 217 211 223 258 268 273 291 306 317 312 298 289 285 283 278 276 275 281 277 287
225 250 250 242 221 229 230 240 218 218 217 241 249 251 244 256 260 230 209 197 197 201 204 210 213 217 238 260 275 289 300 305 306 307 309 298 292 288 282 273 273 279 281 280
224 229 236 216 222 231 222 224 224 234 225 189 259 257 269 260 245 221 201 199 205 212 212 211 218 225 243 277 296 307 308 306 306 305 306 307 303 294 286 279 278 282 283 285
223 235 249 243 244 239 239 241 222 214 217 228 239 256 261 273 220 216 204 203 205 205 208 214 224 259 287 287 288 296 298 299 299 299 301 298 301 290 292 295 291 287 284 284
214 218 245 263 252 237 239 227 234 235 239 236 204 249 254 237 208 198 196 193 198 208 221 250 273 280 283 285 286 286 289 288 286 285 286 289 294 287 284 289 290 290 286 283
224 219 224 234 233 207 235 235 233 229 227 236 232 235 219 199 188 186 193 201 219 243 268 277 279 283 289 290 289 290 290 285 280 284 289 288 282 280 287 290 288 283 282 281
220 229 235 247 246 241 250 255 236 231 234 222 234 222 215 196 190 203 217 233 260 273 274 278 282 288 291 296 297 290 286 286 283 285 289 283 280 283 284 282 281 280 287 283
220 226 239 243 246 246 248 245 244 237 238 234 236 225 212 206 220 225 240 248 261 274 282 283 284 288 290 292 289 285 284 285 287 290 291 289 284 284 290 281 274 285 288 291
233 237 241 242 247 239 244 242 234 230 227 225 224 218 213 212 221 231 245 258 268 272 274 275 278 280 279 280 277 278 281 281 284 287 289 289 285 278 278 281 290 281 292 298
242 260 236 242 218 217 246 249 236 230 230 222 217 212 215 224 233 240 250 256 268 266 267 273 276 276 278 277 273 272 276 278 280 284 284 285 286 285 283 282 280 280 285 284
243 236 225 206 212 266 236 210 201 218 229 223 222 220 214 230 248 256 266 260 260 267 275 275 277 278 273 270 272 274 276 280 283 285 284 285 285 286 286 285 284 281 282 267
218 232 229 216 209 209 250 242 226 232 242 236 237 242 243 248 247 259 260 262 263 263 266 262 265 269 271 274 277 280 283 284 286 285 285 284 283 282 281 279 277 275 273 268
201 211 214 218 222 243 233 207 187 189 243 258 253 251 250 253 257 254 243 247 258 260 262 268 275 278 281 287 291 291 292 295 297 297 295 293 288 280 274 270 267 264 263 266
203 193 206 217 220 251 231 193 205 237 245 262 262 249 239 239 243 249 249 248 252 265 275 277 281 288 294 296 296 297 298 298 296 294 291 289 287 284 281 271 262 259 258 253
205 212 207 212 228 227 236 238 246 251 254 258 257 243 229 231 230 234 242 252 264 273 280 286 291 291 292 293 295 295 296 296 297 296 293 291 286 284 280 278 261 259 260 260
210 220 216 221 229 233 249 268 271 269 262 249 238 231 233 236 240 247 255 264 275 281 285 287 287 286 287 290 295 297 297 298 299 299 296 289 283 284 283 275 270 264 260 262
228 233 231 237 248 254 254 253 256 251 244 242 241 242 242 244 250 257 267 276 281 282 281 284 288 291 293 293 293 292 294 296 296 295 293 292 289 285 280 277 272 266 269 266
236 240 241 248 253 253 250 243 237 239 241 244 244 242 245 253 267 276 282 286 285 285 286 288 292 294 293 294 295 295 295 296 296 297 296 291 286 285 283 275 270 265 269 271